Date String (YYYY-MM-DD hh:mm:ss) UTC,Instrument flags,Ambient pressure (hPa),Sample flow (lpm),Bypass flow (lpm),Sample temperature (°C),Ambient temperature (°C),ASC tube jacket temperature (°C),LED temperature (°C),Box temperature (°C),Sample RH (%),Span deviation,Mass concentration (μg/m³),Mass concentration (μg/m³),Mass concentration (μg/m³)
DateTimeUTC,F1_M11,P_M11,Q1_M11,Q2_M11,T1_M11,T2_M11,T3_M11,T4_M11,T5_M11,U1_M11,ZSPAN_M11,X0_M11,X2_M11,X1_M11
2023-03-03 20:00:00,,0812.8,5.00,0.00,22.7,21.2,00.0,31.3,24.4,12.3,-001.8,0014.86,0009.39,0008.76
2023-03-03 20:01:00,,0812.8,5.01,0.00,22.6,21.2,00.0,31.3,24.4,12.3,-001.5,0015.22,0009.61,0008.98
2023-03-03 20:02:00,,0812.8,5.03,0.00,22.6,21.1,00.0,31.3,24.4,12.5,-001.2,0016.22,0009.87,0009.21
2023-03-03 20:03:00,,0812.8,4.99,0.00,22.6,21.1,00.0,31.3,24.4,12.5,-001.1,0016.45,0010.09,0009.43
2023-03-03 20:04:00,,0812.8,5.01,0.00,22.6,21.0,00.0,31.3,24.4,12.6,-001.2,0016.71,0010.27,0009.61
2023-03-03 20:05:00,,0812.8,5.00,0.00,22.6,21.0,00.0,31.3,24.4,12.7,-001.3,0016.77,0010.54,0009.87
2023-03-03 20:06:00,,0812.8,5.00,0.00,22.6,21.1,00.0,31.3,24.4,12.8,-001.5,0017.61,0010.86,0010.13
2023-03-03 20:07:00,,0812.8,5.01,0.00,22.6,21.0,00.0,31.3,24.4,12.9,-001.6,0017.62,0011.06,0010.33
2023-03-03 20:08:00,,0812.8,5.01,0.00,22.6,21.0,00.0,31.3,24.4,12.4,-001.4,0017.75,0011.15,0010.41
2023-03-03 20:09:00,,0812.8,5.00,0.00,22.6,21.0,00.0,31.3,24.4,12.6,-001.2,0017.51,0011.22,0010.49
2023-03-03 20:10:00,,0812.7,5.00,0.00,22.6,21.0,00.0,31.3,24.4,12.8,-001.2,0017.35,0011.24,0010.54
2023-03-03 20:11:00,,0812.7,5.02,0.00,22.6,20.9,00.0,31.3,24.4,12.8,-001.3,0017.65,0011.34,0010.61
2023-03-03 20:12:00,,0812.7,5.00,0.00,22.6,20.9,00.0,31.3,24.4,12.9,-001.4,0017.88,0011.48,0010.75
2023-03-03 20:13:00,,0812.7,5.01,0.00,22.6,20.9,00.0,31.3,24.4,12.9,-001.5,0017.20,0011.49,0010.81
2023-03-03 20:14:00,,0812.7,5.00,0.00,22.6,20.9,00.0,31.3,24.4,12.9,-001.7,0017.23,0011.51,0010.81
2023-03-03 20:15:00,,0812.7,5.00,0.00,22.6,20.9,00.0,31.3,24.4,13.0,-001.6,0017.06,0011.55,0010.84
2023-03-03 20:16:00,,0812.7,5.00,0.00,22.6,20.9,00.0,31.3,24.4,12.9,-001.2,0016.85,0011.58,0010.87
2023-03-03 20:17:00,,0812.7,4.99,0.00,22.6,20.9,00.0,31.3,24.3,12.8,-000.8,0016.38,0011.57,0010.87
2023-03-03 20:18:00,,0812.7,5.00,0.00,22.6,20.9,00.0,31.3,24.3,12.6,-000.6,0016.79,0011.52,0010.82
2023-03-03 20:19:00,,0812.7,5.01,0.00,22.6,20.9,00.0,31.3,24.3,12.8,-000.6,0016.90,0011.50,0010.79
2023-03-03 20:20:00,,0812.7,5.00,0.00,22.6,20.9,00.0,31.3,24.3,12.9,-000.8,0017.67,0011.49,0010.78
2023-03-03 20:21:00,,0812.7,5.00,0.00,22.6,20.9,00.0,31.3,24.3,12.9,-000.6,0018.11,0011.38,0010.71
2023-03-03 20:22:00,,0812.7,5.01,0.00,22.6,20.9,00.0,31.3,24.3,12.6,-000.8,0017.85,0011.25,0010.60
2023-03-03 20:23:00,,0812.7,4.99,0.00,22.6,21.0,00.0,31.3,24.3,12.8,-000.8,0017.76,0011.16,0010.48
2023-03-03 20:24:00,,0812.7,4.99,0.00,22.6,21.0,00.0,31.3,24.4,13.0,-000.8,0017.94,0011.18,0010.45
2023-03-03 20:25:00,,0812.7,5.00,0.00,22.6,21.0,00.0,31.3,24.4,12.7,-000.8,0018.13,0011.07,0010.39
2023-03-03 20:26:00,,0812.6,4.98,0.00,22.6,21.0,00.0,31.3,24.4,12.4,-000.9,0018.27,0010.87,0010.20
2023-03-03 20:27:00,,0812.6,4.99,0.00,22.6,21.0,00.0,31.3,24.4,12.9,-001.2,0018.05,0010.73,0010.06
2023-03-03 20:28:00,,0812.7,5.00,0.00,22.6,21.0,00.0,31.3,24.3,13.2,-001.2,0018.24,0010.78,0010.10
2023-03-03 20:29:00,,0812.6,5.00,0.00,22.6,21.0,00.0,31.3,24.3,13.3,-001.4,0018.38,0010.86,0010.17
2023-03-03 20:30:00,,0812.5,5.00,0.00,22.6,20.9,00.0,31.3,24.3,12.9,-001.5,0018.31,0010.82,0010.14
2023-03-03 20:31:00,,0812.5,5.00,0.00,22.6,20.9,00.0,31.3,24.3,12.7,-001.7,0017.52,0010.77,0010.06
2023-03-03 20:32:00,,0812.5,5.00,0.00,22.6,20.9,00.0,31.3,24.3,12.8,-002.0,0017.11,0010.76,0009.98
2023-03-03 20:33:00,,0812.6,4.99,0.00,22.5,20.8,00.0,31.3,24.2,12.7,-001.8,0016.98,0010.74,0009.96
2023-03-03 20:34:00,,0812.6,5.01,0.00,22.5,20.8,00.0,31.3,24.3,12.7,-001.7,0016.65,0010.65,0009.91
2023-03-03 20:35:00,,0812.6,5.00,0.00,22.5,20.8,00.0,31.3,24.2,12.8,-001.6,0016.40,0010.52,0009.82
2023-03-03 20:36:00,,0812.6,5.01,0.00,22.5,20.7,00.0,31.3,24.2,12.9,-001.5,0016.05,0010.48,0009.77
2023-03-03 20:37:00,,0812.6,5.01,0.00,22.5,20.8,00.0,31.3,24.2,12.9,-001.6,0016.13,0010.57,0009.83
2023-03-03 20:38:00,,0812.6,5.00,0.00,22.5,20.8,00.0,31.3,24.2,12.7,-001.5,0016.89,0010.57,0009.85
2023-03-03 20:39:00,,0812.6,5.01,0.00,22.5,20.8,00.0,31.3,24.2,12.7,-001.7,0017.05,0010.44,0009.74
2023-03-03 20:40:00,,0812.6,5.01,0.00,22.5,20.7,00.0,31.3,24.2,12.5,-001.3,0016.44,0010.29,0009.58
2023-03-03 20:41:00,,0812.6,5.00,0.00,22.4,20.7,00.0,31.3,24.2,12.8,-001.1,0016.16,0010.20,0009.51
2023-03-03 20:42:00,,0812.6,5.01,0.00,22.4,20.7,00.0,31.2,24.2,12.8,-000.9,0016.24,0010.17,0009.49
2023-03-03 20:43:00,,0812.6,5.00,0.00,22.4,20.8,00.0,31.2,24.2,12.7,-000.8,0016.20,0010.12,0009.46
2023-03-03 20:44:00,,0812.6,5.00,0.00,22.4,20.8,00.0,31.2,24.2,12.5,-000.9,0016.51,0010.00,0009.36
2023-03-03 20:45:00,,0812.6,5.03,0.00,22.4,20.8,00.0,31.2,24.2,12.4,-001.0,0016.70,0009.87,0009.25
2023-03-03 20:46:00,,0812.7,4.99,0.00,22.4,20.8,00.0,31.2,24.2,12.3,-001.2,0016.74,0009.74,0009.11
2023-03-03 20:47:00,,0812.7,4.97,0.00,22.4,20.8,00.0,31.2,24.2,12.2,-001.5,0016.55,0009.58,0008.97
2023-03-03 20:48:00,,0812.7,5.00,0.00,22.4,20.8,00.0,31.2,24.1,12.5,-001.4,0016.00,0009.40,0008.83
2023-03-03 20:49:00,,0812.7,5.01,0.00,22.4,20.7,00.0,31.2,24.1,12.4,-001.3,0015.30,0009.27,0008.69
2023-03-03 20:50:00,,0812.7,5.00,0.00,22.4,20.7,00.0,31.2,24.1,12.6,-001.3,0014.52,0009.12,0008.56
2023-03-03 20:51:00,,0812.8,5.00,0.00,22.4,20.6,00.0,31.2,24.1,12.6,-001.5,0014.22,0008.98,0008.44
2023-03-03 20:52:00,,0812.8,5.00,0.00,22.3,20.5,00.0,31.2,24.0,12.5,-001.7,0014.92,0008.90,0008.34
2023-03-03 20:53:00,,0812.8,5.01,0.00,22.3,20.5,00.0,31.2,24.0,12.5,-001.8,0014.74,0008.78,0008.24
2023-03-03 20:54:00,,0812.8,5.01,0.00,22.3,20.5,00.0,31.2,24.0,12.5,-001.5,0014.74,0008.69,0008.15
2023-03-03 20:55:00,,0812.8,4.99,0.00,22.3,20.6,00.0,31.2,24.1,12.5,-001.6,0014.12,0008.65,0008.12
2023-03-03 20:56:00,,0812.9,4.99,0.00,22.3,20.6,00.0,31.1,24.1,12.6,-001.4,0013.85,0008.66,0008.11
2023-03-03 20:57:00,,0812.9,5.01,0.00,22.3,20.6,00.0,31.1,24.1,12.6,-000.9,0013.77,0008.68,0008.12
2023-03-03 20:58:00,,0812.9,5.02,0.00,22.3,20.7,00.0,31.1,24.1,12.6,-000.7,0013.78,0008.71,0008.14
2023-03-03 20:59:00,,0812.9,5.00,0.00,22.3,20.7,00.0,31.1,24.2,12.6,-000.7,0013.88,0008.78,0008.18
